AZU2672 SBVT-SBCF

Flight info

Callsign AZU2672
Flight time 0h 54m
Altitude 32000
Route OPLOX UZ34 NIPDA
Aircraft E195/M-SDE3GILORVW/S

Departure

Time 2026-04-24 01:02
Airport Eurico de Aguiar Salles International Airport (SBVT)

Arrival

Time 2026-04-24 01:57
Airport Tancredo Neves International Airport (SBCF)
Time Latitude Longitude Altitude Speed Heading
2026-04-24 00:32 -20.26502 -40.28171 31 ft 0 kts 261°
2026-04-24 00:50 -20.26502 -40.28170 31 ft 2 kts 261°
2026-04-24 00:50 -20.26499 -40.28144 31 ft 4 kts 272°
2026-04-24 00:51 -20.26503 -40.28117 31 ft 4 kts 302°
2026-04-24 00:51 -20.26520 -40.28101 32 ft 2 kts 351°
2026-04-24 00:51 -20.26526 -40.28100 32 ft 0 kts 351°
2026-04-24 00:55 -20.26522 -40.28100 32 ft 3 kts 352°
2026-04-24 00:56 -20.26474 -40.28098 31 ft 11 kts 13°
2026-04-24 00:56 -20.26397 -40.28058 31 ft 13 kts
2026-04-24 00:56 -20.26297 -40.28069 30 ft 15 kts 351°
2026-04-24 00:56 -20.26188 -40.28085 29 ft 16 kts 352°
2026-04-24 00:57 -20.26073 -40.28102 28 ft 17 kts 352°
2026-04-24 00:57 -20.25952 -40.28120 27 ft 17 kts 353°
2026-04-24 00:57 -20.25736 -40.28152 25 ft 14 kts 352°
2026-04-24 00:58 -20.25644 -40.28165 26 ft 13 kts 352°
2026-04-24 00:58 -20.25543 -40.28181 22 ft 16 kts 352°
2026-04-24 00:58 -20.25430 -40.28197 21 ft 11 kts 353°
2026-04-24 00:58 -20.25361 -40.28193 20 ft 11 kts 22°
2026-04-24 00:59 -20.25299 -40.28149 20 ft 10 kts 33°
2026-04-24 00:59 -20.25292 -40.28145 20 ft 1 kts 33°
2026-04-24 00:59 -20.25280 -40.28136 22 ft 4 kts 33°
2026-04-24 00:59 -20.25247 -40.28114 21 ft 8 kts 32°
2026-04-24 01:00 -20.25186 -40.28075 20 ft 13 kts 24°
2026-04-24 01:00 -20.25078 -40.28072 17 ft 18 kts 351°
2026-04-24 01:00 -20.24941 -40.28093 16 ft 21 kts 352°
2026-04-24 01:00 -20.24815 -40.28084 15 ft 16 kts 27°
2026-04-24 01:01 -20.24801 -40.28109 15 ft 5 kts 201°
2026-04-24 01:01 -20.24828 -40.28109 17 ft 0 kts 174°
2026-04-24 01:02 -20.24910 -40.28098 16 ft 43 kts 170°
2026-04-24 01:02 -20.25478 -40.28014 26 ft 121 kts 172°
2026-04-24 01:02 -20.26452 -40.27876 142 ft 176 kts 173°
2026-04-24 01:02 -20.27772 -40.27682 841 ft 203 kts 173°
2026-04-24 01:03 -20.29243 -40.27481 1850 ft 222 kts 173°
2026-04-24 01:03 -20.30806 -40.27277 2871 ft 230 kts 177°
2026-04-24 01:03 -20.32439 -40.27583 3592 ft 253 kts 204°
2026-04-24 01:03 -20.33793 -40.28853 4470 ft 269 kts 235°
2026-04-24 01:04 -20.34467 -40.30730 5531 ft 276 kts 261°
2026-04-24 01:04 -20.34334 -40.32735 6658 ft 278 kts 284°
2026-04-24 01:04 -20.33709 -40.34695 7634 ft 283 kts 291°
2026-04-24 01:04 -20.32953 -40.36683 8013 ft 289 kts 292°
2026-04-24 01:05 -20.32140 -40.38667 8131 ft 294 kts 294°
2026-04-24 01:05 -20.31257 -40.40616 8124 ft 291 kts 296°
2026-04-24 01:05 -20.30356 -40.42544 8095 ft 287 kts 296°
2026-04-24 01:05 -20.29478 -40.44446 8171 ft 288 kts 295°
2026-04-24 01:06 -20.28599 -40.46370 8164 ft 289 kts 296°
2026-04-24 01:06 -20.27716 -40.48289 8172 ft 289 kts 296°
2026-04-24 01:06 -20.26831 -40.50216 8174 ft 290 kts 296°
2026-04-24 01:06 -20.25943 -40.52150 8182 ft 291 kts 296°
2026-04-24 01:07 -20.25056 -40.54077 8569 ft 291 kts 297°
2026-04-24 01:07 -20.23949 -40.55887 9550 ft 293 kts 308°
2026-04-24 01:07 -20.22625 -40.57547 10499 ft 300 kts 311°
2026-04-24 01:07 -20.21204 -40.59278 10999 ft 320 kts 311°
2026-04-24 01:08 -20.19726 -40.61112 11700 ft 332 kts 311°
2026-04-24 01:08 -20.18222 -40.63002 12605 ft 337 kts 311°
2026-04-24 01:08 -20.16697 -40.64922 13563 ft 342 kts 311°
2026-04-24 01:08 -20.15144 -40.66872 14438 ft 348 kts 311°
2026-04-24 01:09 -20.13573 -40.68854 15316 ft 353 kts 310°
2026-04-24 01:09 -20.11977 -40.70863 16192 ft 358 kts 310°
2026-04-24 01:09 -20.10370 -40.72894 17108 ft 361 kts 310°
2026-04-24 01:09 -20.08741 -40.74944 17957 ft 365 kts 309°
2026-04-24 01:10 -20.07088 -40.77019 18681 ft 370 kts 309°
2026-04-24 01:10 -20.05414 -40.79117 19334 ft 375 kts 309°
2026-04-24 01:10 -20.03723 -40.81240 19996 ft 378 kts 309°
2026-04-24 01:10 -20.02017 -40.83380 20644 ft 381 kts 309°
2026-04-24 01:11 -20.00296 -40.85539 21288 ft 384 kts 309°
2026-04-24 01:11 -19.98557 -40.87715 21904 ft 388 kts 309°
2026-04-24 01:11 -19.96799 -40.89916 22511 ft 392 kts 309°
2026-04-24 01:11 -19.95632 -40.91380 22879 ft 394 kts 309°
2026-04-24 01:12 -19.93849 -40.93609 23458 ft 398 kts 309°
2026-04-24 01:12 -19.91433 -40.96625 24120 ft 403 kts 308°
2026-04-24 01:12 -19.90231 -40.98125 24435 ft 405 kts 308°
2026-04-24 01:12 -19.88401 -41.00409 24932 ft 407 kts 308°
2026-04-24 01:13 -19.86629 -41.02762 25358 ft 409 kts 301°
2026-04-24 01:13 -19.85454 -41.05488 25774 ft 407 kts 283°
2026-04-24 01:13 -19.85041 -41.08449 26223 ft 405 kts 272°
2026-04-24 01:13 -19.84852 -41.11440 26657 ft 407 kts 271°
2026-04-24 01:14 -19.84676 -41.14450 27076 ft 410 kts 271°
2026-04-24 01:14 -19.84503 -41.17482 27510 ft 413 kts 271°
2026-04-24 01:14 -19.84333 -41.20531 27922 ft 415 kts 271°
2026-04-24 01:14 -19.84177 -41.23598 28348 ft 417 kts 270°
2026-04-24 01:15 -19.83985 -41.26680 28783 ft 419 kts 272°
2026-04-24 01:15 -19.83685 -41.29765 29235 ft 420 kts 273°
2026-04-24 01:15 -19.83376 -41.32837 29782 ft 417 kts 273°
2026-04-24 01:15 -19.83086 -41.35893 30260 ft 415 kts 272°
2026-04-24 01:16 -19.82796 -41.38939 30655 ft 414 kts 272°
2026-04-24 01:16 -19.82510 -41.41983 31025 ft 414 kts 272°
2026-04-24 01:16 -19.82229 -41.45021 31404 ft 413 kts 273°
2026-04-24 01:16 -19.81945 -41.48052 31785 ft 412 kts 273°
2026-04-24 01:17 -19.81664 -41.51073 32193 ft 409 kts 273°
2026-04-24 01:17 -19.81090 -41.57206 32300 ft 427 kts 273°
2026-04-24 01:17 -19.80791 -41.60383 32209 ft 439 kts 273°
2026-04-24 01:18 -19.80485 -41.63649 32164 ft 449 kts 273°
2026-04-24 01:18 -19.79853 -41.70319 32157 ft 463 kts 274°
2026-04-24 01:19 -19.79200 -41.77185 32145 ft 466 kts 273°
2026-04-24 01:19 -19.78546 -41.84048 32154 ft 467 kts 274°
2026-04-24 01:20 -19.77891 -41.90910 32159 ft 467 kts 274°
2026-04-24 01:20 -19.77237 -41.97723 32155 ft 467 kts 274°
2026-04-24 01:21 -19.76576 -42.04590 32154 ft 468 kts 274°
2026-04-24 01:21 -19.75911 -42.11460 32142 ft 468 kts 274°
2026-04-24 01:22 -19.75230 -42.18326 32145 ft 468 kts 274°
2026-04-24 01:22 -19.74537 -42.25196 32133 ft 468 kts 274°
2026-04-24 01:23 -19.73843 -42.32074 32131 ft 468 kts 274°
2026-04-24 01:23 -19.73147 -42.38939 32134 ft 468 kts 274°
2026-04-24 01:24 -19.72448 -42.45811 32132 ft 469 kts 274°
2026-04-24 01:24 -19.71747 -42.52689 32129 ft 468 kts 274°
2026-04-24 01:25 -19.71045 -42.59559 32131 ft 469 kts 274°
2026-04-24 01:25 -19.70340 -42.66399 32137 ft 466 kts 274°
2026-04-24 01:26 -19.69637 -42.73234 32154 ft 462 kts 274°
2026-04-24 01:26 -19.68926 -42.80067 32118 ft 417 kts 274°
2026-04-24 01:26 -19.68615 -42.83054 32128 ft 398 kts 274°
2026-04-24 01:27 -19.68319 -42.85901 32124 ft 379 kts 274°
2026-04-24 01:27 -19.68037 -42.88616 32129 ft 361 kts 274°
2026-04-24 01:27 -19.67768 -42.91198 32128 ft 344 kts 274°
2026-04-24 01:27 -19.67511 -42.93667 32136 ft 330 kts 274°
2026-04-24 01:28 -19.67261 -42.96096 32156 ft 336 kts 274°
2026-04-24 01:28 -19.66741 -43.01119 32207 ft 348 kts 274°
2026-04-24 01:29 -19.66217 -43.06075 32110 ft 324 kts 274°
2026-04-24 01:29 -19.65968 -43.08434 31585 ft 325 kts 273°
2026-04-24 01:29 -19.65743 -43.10824 31038 ft 325 kts 268°
2026-04-24 01:29 -19.65924 -43.13199 30470 ft 323 kts 255°
2026-04-24 01:30 -19.66421 -43.15529 29843 ft 326 kts 253°
2026-04-24 01:30 -19.66955 -43.17885 29092 ft 332 kts 253°
2026-04-24 01:30 -19.67492 -43.20290 28357 ft 338 kts 254°
2026-04-24 01:30 -19.68027 -43.22739 27610 ft 344 kts 254°
2026-04-24 01:31 -19.68569 -43.25240 26837 ft 352 kts 255°
2026-04-24 01:31 -19.69106 -43.27806 26036 ft 360 kts 255°
2026-04-24 01:31 -19.69652 -43.30429 25191 ft 368 kts 255°
2026-04-24 01:31 -19.70217 -43.33115 24312 ft 378 kts 255°
2026-04-24 01:32 -19.70798 -43.35866 23450 ft 385 kts 256°
2026-04-24 01:32 -19.71385 -43.38638 22739 ft 384 kts 256°
2026-04-24 01:32 -19.71968 -43.41393 22137 ft 381 kts 256°
2026-04-24 01:32 -19.72547 -43.44122 21544 ft 378 kts 256°
2026-04-24 01:33 -19.73121 -43.46834 20933 ft 376 kts 256°
2026-04-24 01:33 -19.73693 -43.49537 20273 ft 376 kts 256°
2026-04-24 01:33 -19.74235 -43.52244 19672 ft 375 kts 261°
2026-04-24 01:33 -19.74200 -43.55005 18959 ft 377 kts 277°
2026-04-24 01:34 -19.73709 -43.57769 18170 ft 382 kts 281°
2026-04-24 01:34 -19.73170 -43.60521 17544 ft 379 kts 281°
2026-04-24 01:34 -19.72669 -43.63252 16948 ft 375 kts 280°
2026-04-24 01:34 -19.72192 -43.65960 16381 ft 371 kts 280°
2026-04-24 01:35 -19.71723 -43.68647 15698 ft 371 kts 280°
2026-04-24 01:35 -19.71240 -43.71346 15018 ft 372 kts 280°
2026-04-24 01:35 -19.70757 -43.74031 14444 ft 369 kts 282°
2026-04-24 01:35 -19.69878 -43.76576 13637 ft 371 kts 302°
2026-04-24 01:36 -19.68181 -43.78572 13043 ft 356 kts 320°
2026-04-24 01:36 -19.66295 -43.80177 12535 ft 340 kts 322°
2026-04-24 01:36 -19.64493 -43.81730 12111 ft 329 kts 321°
2026-04-24 01:36 -19.62769 -43.83308 11672 ft 327 kts 320°
2026-04-24 01:37 -19.61072 -43.84894 11232 ft 323 kts 320°
2026-04-24 01:37 -19.59392 -43.86460 10804 ft 320 kts 320°
2026-04-24 01:37 -19.57724 -43.88002 10386 ft 316 kts 320°
2026-04-24 01:37 -19.56094 -43.89507 9851 ft 312 kts 320°
2026-04-24 01:38 -19.54493 -43.90987 9467 ft 298 kts 320°
2026-04-24 01:38 -19.52966 -43.92405 9101 ft 286 kts 320°
2026-04-24 01:38 -19.51489 -43.93772 8770 ft 280 kts 320°
2026-04-24 01:38 -19.50010 -43.95135 8413 ft 283 kts 321°
2026-04-24 01:39 -19.48526 -43.96497 8019 ft 282 kts 321°
2026-04-24 01:39 -19.47062 -43.97855 7634 ft 277 kts 321°
2026-04-24 01:39 -19.45631 -43.99178 7269 ft 270 kts 321°
2026-04-24 01:39 -19.44434 -44.00642 7058 ft 256 kts 298°
2026-04-24 01:40 -19.44048 -44.02394 6885 ft 244 kts 269°
2026-04-24 01:40 -19.44568 -44.04135 6014 ft 256 kts 230°
2026-04-24 01:40 -19.45805 -44.05398 5727 ft 241 kts 217°
2026-04-24 01:40 -19.47086 -44.06496 5364 ft 232 kts 218°
2026-04-24 01:41 -19.48290 -44.07565 5083 ft 222 kts 210°
2026-04-24 01:41 -19.49207 -44.08017 4885 ft 216 kts 189°
2026-04-24 01:41 -19.50593 -44.07985 4878 ft 188 kts 158°
2026-04-24 01:41 -19.51741 -44.07545 4861 ft 162 kts 148°
2026-04-24 01:42 -19.52551 -44.06884 4788 ft 139 kts 135°
2026-04-24 01:42 -19.53291 -44.06244 4817 ft 137 kts 135°
2026-04-24 01:42 -19.54010 -44.05586 4821 ft 136 kts 133°
2026-04-24 01:42 -19.54705 -44.04929 4990 ft 134 kts 133°
2026-04-24 01:43 -19.55427 -44.04265 5085 ft 141 kts 134°
2026-04-24 01:43 -19.56185 -44.03561 4789 ft 150 kts 134°
2026-04-24 01:43 -19.56970 -44.02823 4375 ft 146 kts 135°
2026-04-24 01:43 -19.57222 -44.02581 4291 ft 142 kts 134°
2026-04-24 01:44 -19.59860 -44.00104 3486 ft 133 kts 137°
2026-04-24 01:44 -19.60562 -43.99465 3380 ft 134 kts 140°
2026-04-24 01:45 -19.61276 -43.98805 3221 ft 137 kts 138°
2026-04-24 01:45 -19.62005 -43.98141 2955 ft 137 kts 137°
2026-04-24 01:45 -19.62737 -43.97454 3093 ft 154 kts 138°
2026-04-24 01:45 -19.63619 -43.96639 3597 ft 184 kts 137°
2026-04-24 01:46 -19.64579 -43.95688 3921 ft 191 kts 128°
2026-04-24 01:46 -19.65084 -43.94416 4259 ft 190 kts 91°
2026-04-24 01:46 -19.64730 -43.93056 4567 ft 198 kts 61°
2026-04-24 01:46 -19.63824 -43.91901 4885 ft 209 kts 46°
2026-04-24 01:47 -19.62741 -43.90881 5349 ft 208 kts 41°
2026-04-24 01:47 -19.61565 -43.89970 5801 ft 210 kts 36°
2026-04-24 01:47 -19.60311 -43.89111 6089 ft 220 kts 33°
2026-04-24 01:47 -19.58928 -43.88386 6506 ft 222 kts 22°
2026-04-24 01:48 -19.57425 -43.88106 7033 ft 220 kts
2026-04-24 01:48 -19.55866 -43.88466 7061 ft 241 kts 336°
2026-04-24 01:48 -19.54505 -43.89573 7252 ft 246 kts 315°
2026-04-24 01:48 -19.53394 -43.90897 7495 ft 235 kts 314°
2026-04-24 01:49 -19.52290 -43.92210 7412 ft 240 kts 314°
2026-04-24 01:49 -19.51164 -43.93550 6984 ft 249 kts 314°
2026-04-24 01:49 -19.50039 -43.94904 6963 ft 235 kts 314°
2026-04-24 01:49 -19.48903 -43.96169 6484 ft 246 kts 319°
2026-04-24 01:50 -19.47568 -43.97426 5683 ft 266 kts 322°
2026-04-24 01:50 -19.46135 -43.98739 5191 ft 272 kts 320°
2026-04-24 01:50 -19.44818 -44.00112 5151 ft 260 kts 315°
2026-04-24 01:50 -19.43686 -44.01534 5145 ft 247 kts 310°
2026-04-24 01:51 -19.42822 -44.03089 4443 ft 261 kts 292°
2026-04-24 01:51 -19.42633 -44.05115 3129 ft 286 kts 256°
2026-04-24 01:51 -19.43299 -44.06900 3394 ft 243 kts 237°
2026-04-24 01:51 -19.44282 -44.08246 3745 ft 229 kts 220°
2026-04-24 01:52 -19.45569 -44.09216 3759 ft 224 kts 201°
2026-04-24 01:52 -19.46534 -44.09570 3857 ft 213 kts 186°
2026-04-24 01:52 -19.48445 -44.09501 4491 ft 203 kts 163°
2026-04-24 01:52 -19.49731 -44.09098 4500 ft 186 kts 154°
2026-04-24 01:53 -19.50821 -44.08473 4388 ft 168 kts 138°
2026-04-24 01:53 -19.51668 -44.07764 4561 ft 146 kts 139°
2026-04-24 01:53 -19.52518 -44.07163 4857 ft 150 kts 142°
2026-04-24 01:53 -19.53404 -44.06556 5132 ft 153 kts 142°
2026-04-24 01:54 -19.54197 -44.05815 5195 ft 150 kts 124°
2026-04-24 01:54 -19.54800 -44.04966 5253 ft 144 kts 122°
2026-04-24 01:54 -19.55532 -44.04206 5119 ft 148 kts 134°
2026-04-24 01:54 -19.56308 -44.03477 4886 ft 152 kts 134°
2026-04-24 01:55 -19.57075 -44.02708 4564 ft 149 kts 133°
2026-04-24 01:55 -19.57819 -44.01989 4251 ft 143 kts 136°
2026-04-24 01:55 -19.58583 -44.01320 3918 ft 141 kts 137°
2026-04-24 01:55 -19.59296 -44.00665 3724 ft 132 kts 136°
2026-04-24 01:56 -19.59959 -44.00026 3512 ft 127 kts 136°
2026-04-24 01:56 -19.60619 -43.99412 3350 ft 126 kts 139°
2026-04-24 01:56 -19.61283 -43.98789 3156 ft 128 kts 138°
2026-04-24 01:56 -19.61963 -43.98168 2976 ft 130 kts 136°
2026-04-24 01:57 -19.62636 -43.97549 2806 ft 123 kts 137°
2026-04-24 01:57 -19.63174 -43.97057 2809 ft 79 kts 139°
2026-04-24 01:57 -19.63473 -43.96779 2810 ft 34 kts 136°
2026-04-24 01:57 -19.63587 -43.96596 2811 ft 20 kts 111°
2026-04-24 01:58 -19.63610 -43.96528 2814 ft 0 kts 108°
2026-04-24 01:58 -19.63610 -43.96527 2814 ft 0 kts 108°
2026-04-24 01:58 -19.63613 -43.96517 2812 ft 2 kts 108°
2026-04-24 01:59 -19.63620 -43.96495 2811 ft 4 kts 108°
2026-04-24 01:59 -19.63630 -43.96461 2813 ft 6 kts 109°
2026-04-24 01:59 -19.63644 -43.96406 2811 ft 8 kts 94°
2026-04-24 01:59 -19.63614 -43.96358 2813 ft 9 kts 34°
2026-04-24 02:00 -19.63556 -43.96326 2814 ft 10 kts 27°
2026-04-24 02:00 -19.63489 -43.96295 2811 ft 11 kts
2026-04-24 02:00 -19.63434 -43.96340 2814 ft 9 kts 304°
2026-04-24 02:00 -19.63395 -43.96348 2814 ft 4 kts 25°
2026-04-24 02:01 -19.63376 -43.96337 2813 ft 0 kts 30°